| time (UTC) | temp F | wind direction | speed MPH | gust MPH | rain 1hr in | rain 24hr in | rain mn in | humidity % | barometer mb |
| 20260507003516 | 49 | 0.0 | 2.0 | 0.00 | 0.60 | 0.23 | 66 | 1010.5 | |
| 20260507002516 | 49 | 0.0 | 0.0 | 0.00 | 0.62 | 0.23 | 65 | 1010.4 | |
| 20260507001536 | 49 | 0.0 | 0.0 | 0.00 | 0.64 | 0.23 | 65 | 1010.5 | |
| 20260507000516 | 49 | 0.0 | 1.0 | 0.00 | 0.66 | 0.23 | 64 | 1010.4 | |
| 20260506235536 | 50 | 0.0 | 3.0 | 0.00 | 0.68 | 0.23 | 63 | 1010.4 | |
| 20260506234516 | 50 | 0.0 | 3.0 | 0.00 | 0.69 | 0.23 | 61 | 1010.3 | |
| 20260506233516 | 50 | 338 | 1.0 | 5.0 | 0.00 | 0.69 | 0.23 | 59 | 1010.6 |
| 20260506232516 | 50 | 338 | 2.0 | 8.0 | 0.00 | 0.69 | 0.23 | 59 | 1010.6 |
| 20260506231516 | 50 | 0.0 | 3.0 | 0.00 | 0.70 | 0.23 | 62 | 1010.5 | |
| 20260506230536 | 50 | 315 | 2.0 | 7.0 | 0.00 | 0.71 | 0.23 | 61 | 1010.4 |
| 20260506225516 | 51 | 338 | 2.0 | 8.0 | 0.00 | 0.72 | 0.23 | 63 | 1010.2 |
| 20260506224516 | 51 | 0 | 2.0 | 7.0 | 0.00 | 0.74 | 0.23 | 63 | 1010.3 |
| 20260506223516 | 51 | 0 | 2.0 | 7.0 | 0.00 | 0.77 | 0.23 | 62 | 1010.3 |
| 20260506222516 | 52 | 338 | 2.0 | 7.0 | 0.00 | 0.81 | 0.23 | 61 | 1010.2 |
| 20260506221516 | 53 | 315 | 2.0 | 7.0 | 0.00 | 0.86 | 0.23 | 61 | 1009.9 |
| 20260506220516 | 53 | 0 | 1.0 | 3.0 | 0.00 | 0.87 | 0.23 | 61 | 1009.5 |
| 20260506215536 | 53 | 0 | 1.0 | 4.0 | 0.00 | 0.87 | 0.23 | 62 | 1009.7 |
| 20260506214516 | 53 | 0 | 2.0 | 8.0 | 0.00 | 0.87 | 0.23 | 63 | 1009.7 |
| 20260506213516 | 53 | 338 | 1.0 | 4.0 | 0.00 | 0.87 | 0.23 | 62 | 1009.5 |
| 20260506212556 | 53 | 23 | 2.0 | 6.0 | 0.00 | 0.87 | 0.23 | 62 | 1009.2 |
| 20260506211536 | 53 | 45 | 1.0 | 5.0 | 0.00 | 0.87 | 0.23 | 63 | 1009.2 |
| 20260506210516 | 53 | 338 | 1.0 | 6.0 | 0.00 | 0.87 | 0.23 | 60 | 1009.1 |
| 20260506205536 | 53 | 0 | 1.0 | 4.0 | 0.00 | 0.87 | 0.23 | 61 | 1009.1 |
| 20260506204516 | 53 | 315 | 1.0 | 4.0 | 0.00 | 0.87 | 0.23 | 60 | 1009.3 |
| 20260506203536 | 53 | 315 | 1.0 | 4.0 | 0.00 | 0.89 | 0.23 | 59 | 1009.3 |
| 20260506202516 | 53 | 0.0 | 2.0 | 0.00 | 0.90 | 0.23 | 62 | 1009.4 | |
| 20260506201536 | 53 | 315 | 1.0 | 4.0 | 0.00 | 0.90 | 0.23 | 58 | 1009.2 |
| 20260506200516 | 53 | 315 | 1.0 | 8.0 | 0.00 | 0.91 | 0.23 | 60 | 1009.3 |
| 20260506195536 | 53 | 23 | 2.0 | 7.0 | 0.00 | 0.93 | 0.23 | 59 | 1009.2 |
| 20260506194516 | 53 | 0 | 2.0 | 8.0 | 0.00 | 0.93 | 0.23 | 58 | 1009.5 |
| 20260506193516 | 53 | 293 | 2.0 | 7.0 | 0.00 | 0.93 | 0.23 | 59 | 1009.5 |
| 20260506192516 | 53 | 23 | 2.0 | 7.0 | 0.00 | 0.93 | 0.23 | 60 | 1009.1 |
| 20260506191536 | 53 | 315 | 3.0 | 9.0 | 0.00 | 0.94 | 0.23 | 57 | 1009.3 |
| 20260506190516 | 53 | 338 | 4.0 | 8.0 | 0.00 | 0.94 | 0.23 | 57 | 1009.5 |
| 20260506185556 | 54 | 0 | 4.0 | 9.0 | 0.00 | 0.94 | 0.23 | 57 | 1009.6 |
| 20260506184536 | 54 | 293 | 4.0 | 13.0 | 0.00 | 0.94 | 0.23 | 59 | 1009.4 |
| 20260506183516 | 54 | 23 | 5.0 | 15.0 | 0.00 | 0.94 | 0.23 | 57 | 1009.5 |
| 20260506182516 | 54 | 315 | 3.0 | 9.0 | 0.00 | 0.94 | 0.23 | 59 | 1009.4 |
| 20260506181516 | 54 | 23 | 4.0 | 10.0 | 0.00 | 0.94 | 0.23 | 58 | 1009.3 |
| 20260506180516 | 54 | 338 | 4.0 | 11.0 | 0.00 | 0.94 | 0.23 | 57 | 1009.4 |
| 20260506175536 | 54 | 315 | 5.0 | 12.0 | 0.00 | 0.94 | 0.23 | 62 | 1009.6 |
| 20260506174516 | 54 | 0 | 5.0 | 9.0 | 0.00 | 0.94 | 0.23 | 60 | 1009.2 |
| 20260506173516 | 54 | 0 | 4.0 | 8.0 | 0.00 | 0.94 | 0.23 | 60 | 1009.3 |
| 20260506172516 | 54 | 0 | 4.0 | 11.0 | 0.00 | 0.94 | 0.23 | 60 | 1009.2 |
| 20260506171516 | 54 | 0 | 6.0 | 12.0 | 0.00 | 0.94 | 0.23 | 59 | 1009.1 |
| 20260506170516 | 54 | 338 | 4.0 | 9.0 | 0.00 | 0.94 | 0.23 | 62 | 1009.0 |
| 20260506165516 | 53 | 338 | 4.0 | 10.0 | 0.00 | 0.94 | 0.23 | 63 | 1009.3 |
| 20260506164536 | 53 | 315 | 4.0 | 10.0 | 0.00 | 0.94 | 0.23 | 63 | 1009.4 |
| 20260506163516 | 53 | 338 | 4.0 | 9.0 | 0.00 | 0.94 | 0.23 | 69 | 1009.3 |
| 20260506162516 | 52 | 270 | 3.0 | 8.0 | 0.00 | 0.94 | 0.23 | 70 | 1009.3 |
| 20260506160557 | 52 | 315 | 5.0 | 10.0 | 0.00 | 0.94 | 0.23 | 70 | 1008.9 |
| 20260506155516 | 52 | 338 | 3.0 | 8.0 | 0.00 | 0.94 | 0.23 | 72 | 1008.8 |
| 20260506154537 | 52 | 338 | 5.0 | 12.0 | 0.00 | 0.94 | 0.23 | 72 | 1008.8 |
| 20260506153516 | 51 | 338 | 2.0 | 12.0 | 0.00 | 0.94 | 0.23 | 78 | 1008.8 |
| 20260506152516 | 50 | 338 | 4.0 | 9.0 | 0.00 | 0.94 | 0.23 | 76 | 1008.7 |
| 20260506151536 | 50 | 338 | 4.0 | 10.0 | 0.00 | 0.94 | 0.23 | 78 | 1008.5 |
| 20260506150516 | 50 | 315 | 2.0 | 7.0 | 0.00 | 0.94 | 0.23 | 80 | 1008.5 |
| 20260506145516 | 49 | 315 | 2.0 | 8.0 | 0.00 | 0.94 | 0.23 | 82 | 1008.2 |
| 20260506144516 | 49 | 315 | 3.0 | 7.0 | 0.00 | 0.94 | 0.23 | 83 | 1008.0 |
| 20260506143516 | 48 | 338 | 4.0 | 8.0 | 0.00 | 0.94 | 0.23 | 84 | 1008.1 |
| 20260506142516 | 47 | 315 | 3.0 | 8.0 | 0.00 | 0.94 | 0.23 | 86 | 1007.9 |
| 20260506141516 | 47 | 315 | 1.0 | 4.0 | 0.00 | 0.94 | 0.23 | 90 | 1007.8 |
| 20260506140536 | 46 | 293 | 2.0 | 6.0 | 0.00 | 0.94 | 0.23 | 91 | 1007.7 |
| 20260506135536 | 45 | 293 | 2.0 | 6.0 | 0.00 | 0.94 | 0.23 | 92 | 1007.9 |
| 20260506134516 | 45 | 338 | 1.0 | 8.0 | 0.00 | 0.94 | 0.23 | 93 | 1007.7 |
| 20260506133516 | 45 | 315 | 3.0 | 11.0 | 0.00 | 0.94 | 0.23 | 93 | 1007.7 |
| 20260506132536 | 45 | 315 | 2.0 | 6.0 | 0.00 | 0.94 | 0.23 | 94 | 1007.5 |
| 20260506131516 | 45 | 293 | 1.0 | 6.0 | 0.00 | 0.94 | 0.23 | 94 | 1007.4 |
| 20260506130657 | 45 | 338 | 1.0 | 7.0 | 0.00 | 0.94 | 0.23 | 94 | 1007.3 |
| 20260506125557 | 45 | 293 | 1.0 | 5.0 | 0.00 | 0.94 | 0.23 | 94 | 1007.0 |
| 20260506124516 | 45 | 293 | 2.0 | 5.0 | 0.00 | 0.94 | 0.23 | 94 | 1007.0 |
| 20260506123536 | 45 | 315 | 1.0 | 5.0 | 0.01 | 0.94 | 0.23 | 95 | 1006.7 |
| 20260506122516 | 45 | 315 | 1.0 | 6.0 | 0.01 | 0.94 | 0.23 | 95 | 1006.5 |
| 20260506121556 | 45 | 315 | 1.0 | 4.0 | 0.01 | 0.94 | 0.23 | 95 | 1006.4 |
| 20260506121016 | 45 | 0.0 | 3.0 | 0.01 | 0.94 | 0.23 | 95 | 1006.4 | |
| 20260506120017 | 45 | 0.0 | 0.0 | 0.01 | 0.94 | 0.23 | 95 | 1006.4 | |
| 20260506115016 | 44 | 0.0 | 0.0 | 0.01 | 0.94 | 0.23 | 95 | 1006.4 | |
| 20260506114016 | 44 | 0.0 | 0.0 | 0.00 | 0.93 | 0.22 | 95 | 1006.4 | |
| 20260506113016 | 44 | 0.0 | 0.0 | 0.00 | 0.93 | 0.22 | 95 | 1006.5 | |
| 20260506112016 | 44 | 0.0 | 0.0 | 0.00 | 0.93 | 0.22 | 95 | 1006.1 | |
| 20260506111036 | 44 | 0.0 | 0.0 | 0.00 | 0.94 | 0.22 | 95 | 1005.9 | |
| 20260506110037 | 44 | 0.0 | 0.0 | 0.00 | 0.94 | 0.22 | 95 | 1005.8 | |
| 20260506105017 | 44 | 0.0 | 6.0 | 0.00 | 0.94 | 0.22 | 94 | 1006.1 | |
| 20260506104036 | 44 | 0.0 | 3.0 | 0.00 | 0.94 | 0.22 | 94 | 1005.3 | |
| 20260506103016 | 44 | 0.0 | 4.0 | 0.00 | 0.94 | 0.22 | 95 | 1005.4 | |
| 20260506102016 | 44 | 0.0 | 1.0 | 0.00 | 0.94 | 0.22 | 95 | 1005.1 | |
| 20260506101016 | 44 | 0.0 | 0.0 | 0.01 | 0.94 | 0.22 | 95 | 1005.2 | |
| 20260506100036 | 44 | 0.0 | 0.0 | 0.01 | 0.94 | 0.22 | 94 | 1004.6 | |
| 20260506095016 | 44 | 0.0 | 2.0 | 0.02 | 0.94 | 0.22 | 94 | 1004.4 | |
| 20260506094037 | 44 | 23 | 1.0 | 7.0 | 0.02 | 0.94 | 0.22 | 94 | 1004.8 |
| 20260506093016 | 45 | 0.0 | 5.0 | 0.02 | 0.94 | 0.22 | 94 | 1005.2 | |
| 20260506092016 | 45 | 0.0 | 4.0 | 0.02 | 0.94 | 0.22 | 94 | 1005.6 | |
| 20260506091016 | 45 | 0.0 | 5.0 | 0.02 | 0.93 | 0.21 | 94 | 1005.6 | |
| 20260506090017 | 45 | 0.0 | 2.0 | 0.02 | 0.93 | 0.21 | 94 | 1005.4 | |
| 20260506085016 | 45 | 0.0 | 0.0 | 0.01 | 0.92 | 0.20 | 95 | 1005.3 | |
| 20260506084016 | 45 | 0.0 | 2.0 | 0.02 | 0.92 | 0.20 | 95 | 1005.3 | |
| 20260506083016 | 45 | 0.0 | 0.0 | 0.03 | 0.92 | 0.20 | 95 | 1005.2 | |
| 20260506082016 | 45 | 0.0 | 0.0 | 0.04 | 0.92 | 0.20 | 94 | 1005.2 | |
| 20260506081056 | 45 | 0.0 | 1.0 | 0.04 | 0.91 | 0.19 | 94 | 1005.2 | |
| 20260506073016 | 45 | 0.0 | 1.0 | 0.07 | 0.89 | 0.17 | 94 | 1005.3 | |
| 20260506072016 | 45 | 0.0 | 0.0 | 0.07 | 0.88 | 0.16 | 94 | 1005.3 | |
| 20260506071017 | 45 | 0.0 | 2.0 | 0.06 | 0.87 | 0.15 | 94 | 1005.0 | |
| 20260506062517 | 45 | 0.0 | 1.0 | 0.04 | 0.81 | 0.09 | 94 | 1005.0 | |
| 20260506061537 | 45 | 0.0 | 1.0 | 0.06 | 0.81 | 0.09 | 94 | 1005.0 | |
| 20260506060517 | 45 | 0.0 | 0.0 | 0.06 | 0.81 | 0.09 | 94 | 1005.2 | |
| 20260506050517 | 46 | 0.0 | 3.0 | 0.03 | 0.75 | 0.03 | 94 | 1005.4 | |
| 20260506044517 | 47 | 45 | 3.0 | 7.0 | 0.04 | 0.74 | 0.02 | 94 | 1005.3 |
| 20260506043546 | 48 | 45 | 3.0 | 8.0 | 0.03 | 0.73 | 0.01 | 94 | 1005.4 |
| 20260506042516 | 48 | 0.0 | 1.0 | 0.04 | 0.73 | 0.01 | 94 | 1005.5 | |
| 20260506041543 | 48 | 0.0 | 0.0 | 0.05 | 0.73 | 0.01 | 94 | 1005.6 | |
| 20260506040516 | 48 | 0.0 | 3.0 | 0.05 | 0.72 | 0.00 | 94 | 1005.7 | |
| 20260506035516 | 48 | 0.0 | 3.0 | 0.04 | 0.71 | 0.71 | 94 | 1005.8 | |
| 20260506034517 | 49 | 0.0 | 2.0 | 0.04 | 0.70 | 0.70 | 94 | 1005.9 | |
| 20260506033516 | 49 | 0.0 | 0.0 | 0.04 | 0.70 | 0.70 | 94 | 1006.0 | |
| 20260506032536 | 49 | 0.0 | 0.0 | 0.04 | 0.69 | 0.69 | 94 | 1006.2 | |
| 20260506031516 | 49 | 0.0 | 1.0 | 0.04 | 0.68 | 0.68 | 94 | 1006.3 | |
| 20260506030517 | 49 | 0.0 | 0.0 | 0.05 | 0.67 | 0.67 | 94 | 1006.3 | |
| 20260506025617 | 49 | 0.0 | 1.0 | 0.06 | 0.67 | 0.67 | 94 | 1006.2 | |
| 20260506024516 | 49 | 0.0 | 0.0 | 0.06 | 0.66 | 0.66 | 94 | 1006.3 | |
| 20260506023516 | 49 | 0.0 | 0.0 | 0.08 | 0.66 | 0.66 | 94 | 1006.4 | |
| 20260506022516 | 49 | 0.0 | 0.0 | 0.10 | 0.65 | 0.65 | 94 | 1006.3 | |
| 20260506021516 | 49 | 0.0 | 1.0 | 0.12 | 0.64 | 0.64 | 94 | 1006.2 | |
| 20260506020516 | 49 | 0.0 | 1.0 | 0.14 | 0.62 | 0.62 | 94 | 1005.8 | |
| 20260506015516 | 49 | 0.0 | 0.0 | 0.16 | 0.61 | 0.61 | 94 | 1005.7 | |
| 20260506014536 | 49 | 0 | 1.0 | 5.0 | 0.19 | 0.60 | 0.60 | 93 | 1005.4 |
| 20260506013516 | 49 | 0 | 1.0 | 5.0 | 0.23 | 0.58 | 0.58 | 93 | 1005.3 |
| 20260506012516 | 50 | 0 | 2.0 | 7.0 | 0.22 | 0.55 | 0.55 | 93 | 1005.1 |
| 20260506011516 | 50 | 0 | 1.0 | 6.0 | 0.21 | 0.52 | 0.52 | 93 | 1005.3 |
| 20260506010516 | 51 | 338 | 2.0 | 7.0 | 0.19 | 0.48 | 0.48 | 93 | 1005.2 |
| 20260506005536 | 51 | 0.0 | 2.0 | 0.18 | 0.45 | 0.45 | 93 | 1005.1 | |
| 20260506004536 | 51 | 45 | 3.0 | 7.0 | 0.15 | 0.41 | 0.41 | 93 | 1005.2 |